Location: Lake Arresoe
(56.0000°N, 12.5000°E)
Time: 10:55:13
(UTC+02:00)

Cosmos 1674 - Pass Details

Date: 23 August 2020
Orbit: 495 x 517 km, 82.5° (Epoch: 23 September)

Event Time Altitude Azimuth Distance (km) Brightness Sun altitude
Rises 00:20:16 0° 349° (N) 2,611 7.8 -21.7°
Reaches altitude 10° 00:22:25 10° 353° (N) 1,725 6.5 -21.8°
Maximum altitude 00:26:10 62° 75° (ENE) 577 2.8 -21.9°
Enters shadow 00:26:10 62° 75° (ENE) 577 2.8 -21.9°
